Location: Unspecified
(58.3775°N, 0.0000°E)
Time: 04:16:25
(UTC+00:00)

FEDSAT - Visible Passes

Search period start: 04 April 2026 00:00
Search period end: 14 April 2026 00:00
Orbit: 787 x 799 km, 98.9° (Epoch: 28 March)

Date Brightness Start Highest point End Pass type
(mag) Time Alt. Az. Time Alt. Az. Time Alt. Az.
4 Apr 10.4 03:33:50 10° NNE 03:38:46 40° E 03:43:39 10° SSE visible
5 Apr 11.1 03:05:20 10° NE 03:09:43 26° E 03:14:04 10° SSE visible
6 Apr 11.6 02:37:09 10° NE 02:40:33 17° E 02:43:55 10° SE visible
6 Apr 9.3 04:15:43 10° NNE 04:20:58 76° ESE 04:26:11 10° SSW visible
7 Apr 12.0 02:10:08 10° ENE 02:11:15 11° ENE 02:12:23 10° E visible
7 Apr 10.0 03:47:00 10° NNE 03:52:05 49° E 03:57:08 10° S visible
8 Apr 10.8 03:18:26 10° NNE 03:23:06 32° E 03:27:43 10° SSE visible
9 Apr 11.4 02:50:05 10° NE 02:53:59 21° E 02:57:51 10° SE visible
10 Apr 11.7 02:22:16 10° NE 02:24:45 13° E 02:27:12 10° ESE visible
10 Apr 9.7 04:00:13 10° NNE 04:05:24 59° ESE 04:10:32 10° S visible
11 Apr 10.5 03:31:34 10° NNE 03:36:27 38° E 03:41:17 10° SSE visible
12 Apr 11.2 03:03:05 10° NE 03:07:23 25° E 03:11:38 10° SE visible
13 Apr 11.6 02:34:58 10° NE 02:38:12 16° E 02:41:24 10° ESE visible
